Location: Unspecified
(0.0000°N, 0.0000°E)
Time: 09:11:47
(UTC+00:00)

Explorer 11/Cluster Stage 4 - Pass Details

Date: 15 July 2020
Orbit: 467 x 1259 km, 28.8° (Epoch: 03 August)

Event Time Altitude Azimuth Distance (km) Brightness Sun altitude
Rises 19:46:47 0° 274° (W) 4,196 11.5 -23.3°
Reaches altitude 10° 19:50:20 10° 262° (W) 3,222 10.5 -24.1°
Maximum altitude 19:56:50 26° 209° (SSW) 2,166 8.8 -25.6°
Enters shadow 19:59:37 21° 179° (S) 2,334 8.7 -26.3°
Drops below altitude 10° 20:02:54 10° 155° (SSE) 2,966 - -27.0°
Sets 20:06:02 0° 143° (SE) 3,806 - -27.7°
